Vorticity
9 9 10 10 10 9 8 7 6 7 6 6 6 6 7 9 13 17 18 14 10 9 7 4 5 8 6 1 -0 2 3 5 6 3 5 10 13 10 6 13 15 9 9 10 7 3 2 4 3 2 -0 2 2 1 5 6 7 5 2 6 4 4 8 7 6 5 10 11 8 9 7 4 7 12 13 11 11 9 6 5 6 6 7 8 6 8 9 10
7 8 9 9 10 10 10 10 9 8 7 7 6 6 6 6 8 11 16 19 16 11 9 7 4 5 8 5 1 0 2 3 4 6 8 9 12 12 6 8 16 14 8 10 8 3 4 3 2 3 -1 0 3 1 5 5 4 3 2 6 1 0 11 8 4 6 6 10 10 7 6 4 4 6 8 8 8 7 5 8 8 6 10 8 4 7 8 10
4 5 7 7 8 9 9 10 10 11 9 8 7 6 7 6 7 7 9 14 19 18 13 10 7 5 5 7 5 0 -0 1 4 7 8 10 11 13 9 4 13 17 8 8 10 4 5 4 2 4 1 1 3 -0 3 4 1 0 1 12 14 2 7 9 5 7 4 8 10 4 6 5 3 3 4 8 8 7 8 9 7 6 9 6 4 6 6 10
3 3 3 5 6 7 8 8 9 10 11 11 10 8 7 7 7 7 7 7 12 19 19 15 10 7 5 6 7 4 -0 -2 2 7 6 8 10 11 11 6 8 16 9 5 11 7 4 6 4 3 4 2 0 -1 2 3 2 2 -7 -3 13 8 7 12 6 7 6 6 9 5 5 5 4 3 4 7 7 5 6 7 7 8 7 4 6 7 7 10
5 4 3 2 3 4 5 6 8 8 9 10 11 11 10 9 7 6 7 7 7 11 17 20 16 11 7 6 6 5 2 -0 2 6 6 5 6 9 12 8 6 13 11 5 11 9 5 8 6 3 4 1 2 2 1 1 2 7 -1 -9 5 4 2 14 10 8 8 4 8 6 3 5 6 4 6 8 5 5 5 5 6 7 8 7 8 8 7 11
8 8 6 5 4 2 2 3 5 6 8 9 9 10 11 11 10 9 7 8 8 7 10 17 21 17 10 8 6 5 2 0 1 3 7 5 3 6 11 11 7 10 12 7 10 11 7 7 9 4 0 2 3 1 0 2 1 2 4 1 5 2 -1 8 9 11 13 5 7 10 4 5 7 5 7 7 4 6 5 7 9 7 7 7 9 12 11 11
8 9 9 9 8 6 5 3 3 4 5 7 8 8 9 10 10 11 10 9 9 8 7 8 17 22 17 12 6 7 4 -1 0 1 4 6 3 2 7 11 9 10 12 8 7 13 9 4 12 6 -1 3 1 4 3 -0 4 0 2 6 5 3 2 5 6 11 14 7 5 9 6 5 8 7 8 7 5 7 6 8 11 8 8 6 8 15 15 12
6 7 8 8 9 9 9 7 6 4 4 4 6 7 7 8 8 9 10 11 11 10 11 8 9 16 21 19 11 8 5 2 5 3 -0 5 6 2 3 7 9 12 13 8 6 12 10 4 11 8 2 4 1 8 5 -2 5 -0 -2 4 5 4 4 4 5 10 10 7 7 7 8 8 8 7 7 6 5 8 7 10 12 11 9 5 7 12 11 13
6 6 6 7 7 9 9 9 9 7 6 4 4 5 6 7 7 8 7 8 10 10 11 11 9 9 13 20 19 14 9 4 6 5 0 3 5 4 4 5 7 11 14 11 6 8 12 8 7 8 5 2 3 6 4 3 -1 1 9 2 2 6 4 7 5 8 10 6 8 8 8 9 7 8 7 7 7 8 10 10 11 12 9 5 8 9 8 12
7 7 7 7 7 7 8 8 10 9 8 7 5 4 4 5 6 7 7 7 8 8 8 10 11 10 8 12 17 20 20 12 5 6 4 2 3 4 5 5 6 8 12 14 6 4 12 12 5 7 6 -0 4 3 4 9 -9 7 29 8 5 3 -2 17 13 9 12 6 8 9 9 9 7 8 7 8 9 8 9 10 11 12 9 6 7 5 8 13
5 5 5 6 7 7 8 7 8 9 9 8 7 6 4 4 5 5 6 6 7 8 8 8 8 10 10 9 11 17 25 21 10 6 6 5 3 3 4 5 6 7 10 14 10 5 8 11 4 4 6 -0 3 4 7 4 -23 -8 17 3 12 6 -4 17 15 10 12 7 9 8 9 10 6 6 6 7 10 8 7 10 13 14 9 7 8 5 7 10
3 3 3 4 5 5 6 7 7 7 8 9 8 8 6 4 4 4 4 5 5 6 7 8 8 8 9 9 10 12 18 23 19 11 7 7 5 3 3 4 5 5 7 13 13 9 7 7 5 4 6 3 4 6 8 3 -18 -6 8 -2 9 12 6 12 8 11 11 6 9 6 6 7 3 6 9 8 9 8 5 5 9 14 11 6 6 6 7 9
3 2 3 4 5 5 5 6 6 7 7 8 8 8 8 6 5 4 4 4 4 5 5 6 8 8 8 8 9 10 12 16 20 20 13 8 7 5 3 2 4 5 5 11 14 12 7 3 4 8 8 5 3 1 5 6 -4 2 10 -1 -3 5 9 7 6 10 7 7 9 4 4 5 3 5 9 9 7 7 6 4 4 10 12 8 6 5 7 10
3 2 2 3 4 5 6 6 6 6 6 7 7 7 7 8 7 6 5 4 4 4 4 4 5 6 8 8 7 8 10 10 13 19 21 15 10 7 6 3 3 4 5 8 12 13 9 3 4 10 8 9 7 0 4 6 -1 1 8 3 -2 0 5 8 12 10 4 8 9 4 1 3 7 4 5 6 5 7 7 7 7 7 9 9 9 5 6 9
3 2 1 1 2 3 5 7 7 6 7 7 6 6 6 6 7 8 6 6 5 4 4 4 5 4 5 8 8 8 8 9 9 12 20 23 18 10 8 6 3 3 5 5 8 12 11 3 2 8 10 11 8 3 10 8 -1 1 3 1 1 4 7 9 13 9 2 6 8 3 -5 2 14 10 5 6 4 6 5 6 9 9 9 8 9 6 6 8
3 3 3 2 2 2 3 4 6 7 7 8 8 6 6 6 6 7 8 8 6 5 5 4 5 5 4 5 7 8 8 8 9 9 12 20 24 18 11 9 6 3 4 5 6 10 10 6 5 6 7 10 4 5 18 10 -1 2 -1 -1 5 7 6 6 12 9 1 4 7 4 -3 -1 14 14 7 5 3 4 5 4 7 9 10 9 8 7 6 7
4 4 4 4 3 3 3 3 4 5 6 8 9 8 7 6 5 6 7 8 8 7 6 5 5 4 4 6 6 7 8 7 7 8 9 11 19 24 18 11 9 6 3 3 5 8 8 10 11 4 4 12 6 6 15 6 -3 4 1 -0 8 8 2 2 13 11 1 4 6 4 1 -4 7 13 6 5 4 2 5 3 5 7 9 11 7 6 7 6
4 4 3 4 4 4 4 4 3 4 4 4 7 9 9 8 6 6 6 7 9 8 7 6 6 5 5 7 6 6 7 7 7 7 9 10 11 19 23 17 10 8 6 3 4 7 7 10 11 4 3 9 8 5 7 4 0 2 3 4 7 7 4 -0 11 18 6 4 6 5 3 -2 6 12 4 7 6 2 6 4 4 6 8 12 10 7 6 7
6 5 5 4 5 5 4 5 5 5 5 3 4 6 8 10 8 7 7 7 7 7 8 8 7 6 5 4 4 6 6 6 6 5 7 10 9 10 18 22 17 10 8 6 4 4 7 9 6 5 8 7 7 7 7 10 5 -1 3 6 3 5 9 2 9 24 12 1 6 6 4 1 3 7 6 8 6 2 4 4 5 6 6 9 12 11 7 5
7 7 6 6 6 6 5 6 6 6 6 6 4 4 5 8 9 9 9 7 7 7 8 9 8 6 6 4 4 6 7 6 6 6 5 7 11 10 11 18 21 16 10 8 7 3 4 6 2 4 10 7 6 8 9 10 4 -1 2 4 2 2 7 5 7 20 16 2 5 5 4 6 3 4 8 7 5 3 3 4 5 6 6 7 9 10 9 8
8 7 7 7 6 6 7 7 6 7 7 8 7 6 5 5 7 8 9 8 7 7 7 9 9 8 8 6 5 5 6 7 6 6 5 5 8 10 11 12 17 22 17 10 9 6 3 2 3 8 10 6 6 7 8 7 1 -1 3 4 5 3 5 9 4 7 13 4 2 6 4 6 6 3 7 7 5 5 5 4 5 6 6 5 6 7 8 9
8 8 8 7 6 6 7 7 7 7 7 8 8 9 7 5 5 6 8 8 7 7 7 8 9 9 8 6 6 5 4 6 6 6 7 6 5 8 12 11 12 20 21 14 8 6 5 1 3 9 10 8 7 6 7 10 5 -4 -1 3 6 7 5 7 3 5 19 12 -1 6 7 4 8 5 5 8 6 5 5 4 4 7 6 4 5 5 5 5
7 7 8 8 8 7 6 6 7 6 6 8 8 9 10 8 6 5 7 8 8 7 6 7 9 10 10 8 7 6 5 6 6 7 7 6 6 5 8 11 12 14 17 18 13 8 8 5 4 7 9 10 7 6 6 10 8 -8 -6 5 8 9 4 5 9 4 16 18 1 4 9 5 6 5 3 5 5 4 3 3 4 4 5 6 6 4 3 4
8 7 7 7 8 8 7 6 6 6 6 6 7 8 10 10 9 6 6 7 8 7 6 6 6 8 9 10 9 7 6 6 5 6 7 8 9 7 7 10 12 11 11 17 19 15 10 7 6 5 8 13 8 4 5 10 12 -1 -5 4 5 9 7 5 6 -4 2 11 4 5 8 5 4 4 6 4 2 4 1 2 4 4 5 6 6 5 3 4
10 9 7 7 8 8 7 6 6 6 6 6 6 6 7 10 11 9 7 7 7 7 6 6 6 6 7 9 11 9 7 7 5 4 5 7 8 7 8 7 8 11 12 14 18 18 14 9 8 6 7 12 7 4 6 7 11 3 -4 -3 -1 5 8 4 2 6 16 14 5 4 2 4 8 4 5 6 4 4 2 3 3 1 5 5 4 5 4 2
10 10 10 8 8 7 6 5 6 7 8 8 8 7 7 8 9 11 10 7 8 8 6 5 6 7 7 7 8 11 10 8 7 5 4 6 6 6 8 6 5 9 12 12 12 14 17 14 9 6 5 7 7 6 7 6 8 7 0 -4 -2 2 6 5 -1 4 17 15 10 9 1 2 12 9 5 6 7 6 2 3 3 -0 1 3 3 3 3 4
9 10 9 10 9 7 6 5 5 6 6 9 9 8 8 7 7 9 11 8 7 10 10 8 8 9 9 8 7 8 9 11 12 10 6 4 5 5 7 9 7 7 10 11 9 11 19 20 10 5 4 5 8 6 6 10 9 6 3 1 5 5 2 4 4 5 12 14 13 13 6 -1 3 13 13 4 6 8 4 2 4 3 3 3 4 4 3 4
8 9 9 10 9 8 8 5 4 4 4 6 7 8 9 9 9 8 8 9 7 9 10 8 7 7 9 10 9 6 6 10 11 9 9 7 6 5 5 10 11 9 8 7 9 13 19 21 14 11 9 4 5 6 6 12 10 4 3 1 7 14 8 -0 -0 5 10 13 11 9 12 6 -4 3 12 8 6 5 4 6 5 4 8 11 8 5 6 4
1 4 7 8 9 9 8 6 5 4 4 4 4 6 7 8 9 8 7 7 7 9 10 10 8 7 7 7 7 7 6 7 6 7 11 10 8 7 5 8 10 10 9 7 9 11 14 20 15 13 17 7 2 7 11 11 6 5 5 -3 -2 11 13 4 -3 -1 7 14 13 5 7 14 6 -4 1 7 6 5 7 7 5 2 4 10 11 6 7 7
-2 -2 1 4 7 8 7 7 5 5 4 4 4 4 5 6 7 8 8 7 7 6 7 10 11 10 9 8 9 9 8 7 6 7 9 8 7 7 4 5 5 7 9 7 9 9 12 21 13 10 21 15 4 6 12 12 4 5 7 -5 -7 2 6 7 5 4 3 4 13 12 1 4 9 3 -1 0 2 6 9 7 6 6 6 11 14 9 3 6
5 2 1 3 4 5 6 5 4 6 5 3 4 4 3 5 5 5 7 9 9 6 5 7 9 8 8 9 10 9 8 8 8 6 7 9 10 8 6 5 4 7 8 6 9 10 9 14 12 12 19 18 11 6 8 12 7 5 5 -6 -10 0 5 10 14 10 2 -2 11 24 11 -0 7 10 4 0 5 8 5 9 13 5 7 13 7 4 3 4
8 8 8 7 6 6 6 5 5 5 4 4 4 3 3 4 5 6 8 8 8 7 6 6 9 12 10 7 7 7 7 8 8 6 6 8 9 10 8 7 5 6 10 10 10 11 8 10 16 19 20 18 13 8 6 10 8 6 8 -1 -9 -2 3 9 16 11 4 1 1 12 16 10 6 7 9 6 5 11 8 7 9 2 8 18 7 1 5 6
7 8 9 10 12 11 8 7 7 5 4 4 2 3 4 2 2 7 9 8 7 7 8 8 10 13 11 7 7 10 11 10 10 7 6 6 7 10 10 7 4 2 6 10 7 9 9 6 10 15 21 23 19 13 6 4 7 8 8 3 -4 1 3 5 13 10 5 5 3 6 11 16 17 9 17 22 5 7 21 15 6 4 8 15 14 10 6 5
7 8 7 7 11 12 11 10 8 7 6 3 3 4 2 -1 3 9 9 10 9 7 7 8 9 12 12 8 5 6 8 8 9 7 7 7 5 8 10 10 9 4 6 9 6 9 11 5 7 9 15 22 23 21 13 8 12 11 10 8 -3 -3 -0 1 9 9 6 6 7 12 3 4 25 17 10 24 8 -7 10 17 8 4 -0 -1 9 18 14 8
8 7 6 6 7 9 11 10 9 9 6 4 6 3 -2 0 5 6 5 6 7 7 7 6 7 10 11 10 5 4 4 4 9 8 5 6 6 7 8 10 13 7 3 8 9 9 9 8 10 10 11 19 24 25 21 15 10 5 10 9 -8 -13 -12 -11 -0 6 8 7 2 11 9 -3 8 13 7 17 13 -8 -8 7 12 7 5 6 8 12 11 6
9 8 9 8 9 11 12 11 10 8 6 7 5 -2 -0 6 6 3 4 6 6 7 8 7 7 8 10 11 7 5 4 3 7 9 6 7 7 7 7 8 11 9 3 4 8 9 9 12 15 10 8 14 21 26 24 14 4 8 19 11 -4 2 -1 -14 -6 3 4 9 6 2 8 8 3 1 3 9 16 9 -6 -1 8 2 6 13 7 7 10 8
9 11 13 9 10 13 13 13 12 9 8 6 -1 -1 8 10 5 5 5 5 7 6 6 6 6 7 9 11 11 8 6 1 -0 4 7 7 6 5 7 7 8 10 8 5 9 13 10 11 15 14 9 9 15 22 25 19 6 4 19 21 9 9 7 -8 -8 0 -4 -3 9 9 2 8 9 1 0 9 22 19 -1 -0 10 4 2 -3 -12 1 12 8
11 16 15 7 12 16 14 14 12 11 11 3 -4 2 10 8 6 9 6 3 6 6 5 8 10 11 9 9 10 8 8 4 -2 2 6 7 9 6 3 7 9 9 8 7 9 11 7 3 8 15 14 10 13 18 21 24 15 -5 -3 22 28 9 0 0 -6 -3 5 -1 -1 9 11 10 8 3 5 12 19 14 2 6 10 5 3 -4 -3 13 16 7
10 18 11 7 21 21 13 16 15 12 9 0 -0 6 9 8 6 7 6 4 5 5 5 9 11 11 9 7 9 11 13 9 0 2 5 3 9 12 5 4 8 9 9 8 8 8 9 5 1 10 15 8 9 19 20 21 25 13 -9 -3 26 28 9 3 -1 -5 6 12 1 -1 8 13 11 7 6 11 15 17 20 13 -2 -3 2 4 18 28 14 4
10 18 10 7 23 19 10 17 17 13 10 4 8 10 8 10 8 6 7 5 5 6 5 8 9 9 9 10 10 8 10 15 12 8 8 7 7 13 12 5 4 8 9 7 8 9 12 10 5 11 18 11 8 15 20 20 24 28 9 -20 -9 30 30 6 3 3 -6 -5 1 2 3 8 13 13 10 12 11 15 32 22 -5 2 13 -2 1 17 12 4
15 22 10 6 22 22 15 18 15 13 13 9 11 13 10 10 8 7 8 5 4 6 6 7 7 8 10 11 12 7 3 11 17 10 9 15 16 13 10 6 5 9 11 9 9 7 6 9 7 3 9 16 15 9 10 20 23 28 33 6 -26 -7 28 23 5 3 2 -2 -1 3 6 9 15 16 13 12 3 1 25 32 11 18 33 10 -5 13 25 19
21 25 17 15 28 29 20 15 15 18 15 11 14 15 12 12 10 9 9 7 5 5 6 7 7 7 10 7 7 9 8 5 4 2 3 10 18 17 11 8 6 6 10 11 12 12 13 14 7 -5 -3 13 19 11 5 14 24 23 32 41 13 -22 -8 23 18 -1 -1 11 13 2 -6 2 13 16 14 12 11 10 16 24 16 6 12 12 4 6 13 17
20 24 26 23 25 28 22 15 17 20 15 15 20 17 13 14 13 11 10 9 7 6 6 8 9 9 10 11 7 6 9 5 -2 -1 2 -3 -0 7 10 10 7 4 8 11 12 12 9 8 10 7 3 7 16 20 15 12 19 17 8 22 34 5 -24 -10 13 12 -3 -4 9 6 -6 -4 -1 -1 4 8 18 30 19 9 8 -6 -10 2 2 -7 1 18
15 20 27 22 17 23 23 19 21 21 16 16 17 15 16 16 15 14 12 9 8 7 7 10 13 12 9 11 11 8 8 8 4 6 9 4 1 3 8 11 7 4 8 12 16 17 12 6 8 11 5 -3 -1 5 8 8 11 15 8 1 13 25 15 -5 -8 5 8 -1 1 3 1 5 -2 -15 -7 -3 -2 15 23 13 6 -2 -5 -1 -9 -10 10 29
19 21 25 24 20 20 19 18 20 17 15 18 18 14 14 13 13 16 16 15 11 9 10 11 13 15 14 11 10 10 10 10 10 12 10 8 5 2 4 5 4 7 9 6 6 10 17 16 7 4 5 -3 -8 -2 8 16 17 19 24 19 14 23 32 22 -1 -15 -8 -0 -2 -8 -8 5 13 6 6 5 -2 9 30 27 11 5 7 5 -9 -13 8 26
26 25 26 25 21 20 21 24 26 21 16 15 15 15 16 15 15 13 12 15 13 11 13 15 15 12 10 10 10 8 9 9 11 12 9 6 3 -2 -0 2 5 11 9 6 8 2 -0 8 9 3 5 5 8 17 17 15 15 20 28 30 25 19 17 27 29 9 -6 -4 -1 -3 -11 -14 -4 11 18 15 1 1 19 23 9 2 7 14 7 -12 -13 9
27 28 28 26 23 25 25 22 25 31 31 24 16 13 13 14 16 16 15 14 12 14 13 11 14 16 11 9 11 9 9 9 9 9 9 9 7 3 3 7 8 13 12 6 10 8 -3 -1 9 11 8 7 12 15 11 12 12 12 21 28 24 16 9 13 26 27 13 3 2 5 1 -14 -32 -30 -6 14 5 -6 8 19 10 -2 -5 1 7 -2 -7 4
26 26 25 23 25 29 28 17 10 16 30 37 34 26 19 14 14 14 17 18 17 27 37 23 9 12 15 11 10 9 8 9 9 9 9 10 12 8 7 10 8 6 11 13 7 4 7 6 4 8 12 12 12 7 1 11 20 11 9 20 26 25 17 6 9 20 20 13 11 8 15 25 8 -27 -34 -11 6 12 17 12 2 1 4 2 -1 -0 9 17
28 30 28 24 21 21 24 25 17 5 5 16 28 32 29 27 25 17 15 17 6 5 32 46 32 25 23 16 13 13 10 8 10 11 12 12 13 11 8 15 26 17 1 6 13 6 5 9 8 6 7 7 13 14 2 -6 2 10 10 11 17 26 28 17 8 12 15 16 17 6 -3 13 30 22 -4 -28 -26 -1 21 28 22 9 4 11 14 10 11 16
29 30 29 26 23 22 20 23 26 20 9 6 15 26 29 29 32 27 19 17 8 -3 7 26 27 22 19 14 11 12 12 14 15 14 18 16 8 10 5 -4 25 57 33 -0 7 15 6 3 9 10 6 4 7 16 17 5 -7 -4 6 9 10 12 20 26 23 18 17 15 15 12 0 -8 -1 21 32 9 -21 -33 -23 9 34 22 7 12 15 9 7 10
24 24 27 27 27 28 25 20 23 26 23 17 15 20 22 21 25 31 26 18 15 10 6 12 19 12 6 11 15 12 14 29 36 24 19 23 13 12 13 -20 -29 29 60 24 -1 7 13 9 6 5 7 10 11 11 14 14 8 -0 -6 -3 4 6 8 17 23 22 18 13 12 11 11 10 1 -4 7 20 12 -16 -39 -35 -18 -7 11 23 11 -3 1 6
19 16 20 26 27 30 32 28 22 20 19 19 20 22 23 20 20 31 36 28 18 6 -4 12 42 41 17 9 16 13 0 4 22 15 -2 6 11 5 14 1 -37 -25 26 39 17 1 2 10 9 6 7 5 5 10 11 11 17 16 6 4 8 6 3 6 13 18 19 19 23 20 8 12 19 7 -6 -0 11 14 6 -7 -21 -24 -10 3 -0 -5 -1 5
Height
5901 5900 5899 5899 5898 5898 5898 5897 5897 5897 5896 5896 5896 5895 5895 5895 5895 5894 5894 5895 5895 5896 5896 5897 5897 5897 5897 5898 5898 5898 5898 5898 5898 5898 5898 5898 5899 5899 5900 5900 5901 5901 5902 5904 5906 5907 5908 5909 5909 5909 5908 5908 5908 5909 5910 5911 5911 5911 5911 5911 5911 5912 5913 5912 5912 5912 5912 5912 5911 5911 5910 5910 5910 5910 5910 5910 5910 5910 5911 5910 5910 5910 5910 5910 5909 5909 5909 5910
5900 5899 5899 5898 5898 5897 5897 5896 5896 5896 5895 5895 5895 5894 5894 5894 5894 5893 5893 5893 5893 5894 5894 5895 5895 5895 5896 5896 5897 5897 5897 5897 5897 5897 5897 5898 5898 5898 5899 5900 5900 5901 5902 5903 5904 5906 5907 5908 5909 5909 5909 5909 5910 5909 5911 5912 5912 5913 5912 5912 5912 5913 5913 5913 5912 5912 5912 5912 5912 5911 5911 5910 5910 5910 5911 5911 5911 5911 5911 5910 5910 5910 5909 5909 5909 5908 5909 5909
5900 5899 5898 5898 5897 5897 5896 5896 5895 5895 5894 5894 5894 5893 5893 5893 5893 5892 5892 5892 5892 5892 5892 5893 5893 5894 5894 5894 5895 5895 5896 5896 5896 5897 5897 5897 5898 5898 5898 5899 5899 5900 5901 5902 5903 5905 5906 5908 5909 5909 5910 5910 5910 5910 5912 5913 5912 5913 5913 5912 5912 5913 5913 5913 5913 5913 5912 5912 5912 5912 5911 5911 5911 5910 5911 5911 5911 5911 5911 5910 5910 5910 5909 5909 5908 5908 5908 5909
5899 5899 5898 5897 5897 5896 5896 5895 5895 5894 5894 5893 5893 5892 5892 5892 5892 5892 5891 5891 5891 5890 5890 5891 5891 5892 5892 5893 5893 5893 5894 5895 5896 5896 5896 5897 5897 5897 5897 5898 5899 5899 5900 5901 5902 5903 5905 5907 5908 5909 5910 5910 5910 5911 5912 5913 5913 5913 5913 5912 5911 5913 5914 5913 5913 5912 5912 5912 5912 5912 5911 5911 5911 5911 5910 5911 5911 5911 5911 5910 5910 5910 5909 5909 5908 5908 5908 5909
5899 5898 5897 5897 5896 5896 5895 5895 5894 5894 5893 5892 5892 5891 5891 5890 5890 5890 5890 5890 5890 5889 5889 5889 5889 5890 5890 5891 5891 5891 5892 5893 5895 5895 5896 5896 5897 5897 5897 5897 5898 5899 5900 5901 5902 5903 5904 5906 5908 5909 5910 5910 5910 5911 5911 5912 5913 5913 5914 5912 5911 5914 5915 5913 5913 5912 5912 5912 5912 5912 5912 5911 5911 5911 5911 5911 5911 5911 5911 5910 5910 5909 5909 5909 5908 5908 5908 5908
5898 5897 5897 5896 5896 5895 5894 5894 5893 5893 5892 5892 5891 5890 5890 5889 5889 5889 5889 5889 5889 5889 5888 5888 5888 5888 5888 5889 5889 5889 5890 5892 5893 5893 5895 5896 5896 5896 5896 5897 5897 5898 5899 5900 5901 5902 5903 5905 5907 5909 5910 5910 5911 5911 5911 5912 5912 5913 5914 5913 5912 5914 5915 5914 5913 5912 5912 5913 5912 5912 5912 5912 5912 5912 5912 5911 5911 5911 5910 5910 5910 5909 5909 5908 5908 5908 5908 5908
5896 5896 5895 5895 5895 5894 5894 5893 5893 5892 5892 5891 5890 5890 5889 5889 5888 5888 5888 5888 5888 5888 5888 5887 5887 5887 5887 5887 5887 5888 5888 5889 5891 5893 5894 5895 5895 5896 5896 5896 5896 5897 5898 5899 5900 5902 5903 5904 5906 5908 5909 5910 5910 5911 5911 5912 5913 5913 5913 5913 5913 5913 5913 5913 5913 5912 5913 5913 5912 5912 5912 5912 5912 5912 5912 5911 5911 5911 5910 5910 5909 5909 5909 5908 5908 5908 5908 5908
5895 5894 5894 5893 5893 5893 5892 5892 5892 5891 5891 5890 5890 5889 5888 5888 5887 5887 5887 5887 5887 5887 5886 5886 5886 5886 5886 5885 5885 5886 5886 5888 5891 5892 5893 5894 5895 5895 5895 5895 5896 5896 5897 5898 5900 5901 5902 5904 5905 5907 5908 5909 5910 5911 5911 5912 5913 5913 5913 5913 5913 5913 5913 5913 5913 5913 5913 5913 5912 5912 5912 5912 5912 5912 5912 5911 5911 5910 5910 5910 5909 5909 5909 5909 5908 5908 5908 5908
5894 5893 5892 5892 5891 5891 5891 5891 5890 5890 5890 5889 5888 5888 5887 5887 5887 5886 5886 5886 5886 5885 5885 5885 5885 5885 5884 5884 5884 5884 5885 5887 5889 5890 5891 5893 5894 5894 5894 5894 5895 5896 5896 5897 5899 5900 5901 5903 5904 5906 5907 5908 5909 5910 5911 5912 5914 5915 5913 5913 5913 5912 5913 5913 5913 5913 5913 5913 5912 5912 5912 5912 5912 5912 5912 5911 5911 5910 5910 5909 5909 5909 5909 5909 5909 5908 5908 5909
5892 5892 5891 5890 5890 5889 5889 5889 5889 5888 5888 5888 5887 5887 5886 5886 5885 5885 5885 5885 5884 5884 5884 5884 5884 5883 5883 5883 5883 5883 5884 5886 5887 5887 5888 5891 5892 5893 5893 5894 5894 5895 5896 5896 5897 5899 5901 5902 5903 5904 5905 5905 5907 5908 5910 5912 5915 5917 5913 5913 5913 5912 5913 5913 5912 5913 5913 5913 5912 5912 5912 5912 5912 5912 5912 5911 5911 5910 5909 5909 5909 5909 5909 5909 5909 5909 5908 5909
5891 5890 5890 5889 5888 5888 5887 5887 5887 5887 5886 5886 5886 5885 5885 5885 5884 5884 5884 5883 5883 5883 5883 5883 5883 5882 5882 5882 5882 5882 5883 5883 5884 5884 5886 5888 5890 5891 5892 5893 5893 5894 5895 5896 5897 5898 5899 5900 5901 5901 5902 5904 5905 5906 5908 5910 5911 5913 5911 5912 5913 5912 5913 5912 5912 5913 5913 5913 5912 5912 5912 5912 5912 5912 5912 5911 5911 5910 5910 5909 5909 5909 5909 5909 5909 5909 5908 5909
5889 5889 5888 5888 5887 5886 5886 5885 5885 5885 5884 5884 5884 5884 5884 5883 5883 5882 5882 5882 5882 5882 5881 5881 5881 5881 5881 5881 5881 5881 5881 5881 5881 5882 5883 5885 5887 5889 5891 5891 5892 5892 5893 5895 5896 5897 5897 5898 5898 5899 5901 5903 5905 5907 5908 5908 5908 5909 5909 5910 5912 5912 5912 5911 5912 5913 5912 5912 5912 5912 5913 5912 5912 5912 5912 5912 5911 5910 5910 5910 5909 5909 5909 5909 5909 5909 5908 5909
5888 5887 5886 5886 5885 5885 5884 5883 5883 5883 5883 5882 5882 5882 5882 5882 5881 5881 5880 5880 5880 5880 5880 5880 5880 5880 5880 5879 5880 5879 5879 5879 5879 5880 5881 5883 5885 5886 5888 5889 5890 5891 5892 5893 5894 5895 5895 5896 5896 5898 5900 5902 5904 5905 5905 5906 5907 5909 5909 5910 5911 5912 5912 5912 5912 5912 5912 5912 5912 5912 5913 5913 5912 5912 5912 5912 5911 5911 5910 5910 5909 5909 5909 5909 5909 5909 5909 5910
5886 5885 5884 5884 5884 5883 5882 5881 5881 5881 5881 5880 5880 5880 5880 5880 5879 5879 5879 5878 5878 5878 5878 5878 5878 5878 5878 5878 5879 5878 5878 5878 5878 5878 5879 5880 5882 5884 5886 5887 5888 5889 5890 5891 5892 5893 5894 5894 5895 5897 5899 5900 5902 5903 5903 5905 5906 5908 5909 5909 5910 5913 5914 5912 5911 5912 5911 5911 5912 5912 5912 5912 5912 5912 5912 5911 5911 5911 5910 5910 5909 5909 5909 5909 5909 5910 5910 5910
5884 5883 5882 5882 5882 5881 5880 5880 5879 5879 5878 5878 5878 5878 5877 5877 5877 5877 5877 5876 5876 5876 5876 5876 5876 5876 5876 5876 5877 5877 5876 5876 5876 5876 5877 5878 5880 5882 5884 5885 5887 5888 5889 5889 5890 5891 5892 5893 5894 5896 5898 5900 5900 5900 5901 5904 5905 5906 5908 5909 5910 5912 5914 5912 5910 5911 5911 5911 5911 5912 5912 5912 5912 5911 5911 5911 5911 5911 5910 5910 5910 5909 5909 5910 5910 5910 5911 5911
5881 5880 5880 5879 5879 5879 5878 5877 5877 5876 5876 5876 5875 5875 5875 5875 5875 5875 5875 5874 5874 5874 5874 5874 5874 5875 5874 5874 5875 5876 5875 5875 5874 5874 5875 5876 5877 5879 5881 5883 5885 5886 5886 5887 5888 5889 5890 5891 5893 5895 5896 5898 5899 5899 5901 5903 5904 5905 5906 5910 5912 5912 5912 5911 5910 5910 5910 5910 5911 5911 5911 5912 5912 5911 5911 5911 5911 5911 5911 5910 5910 5910 5909 5910 5910 5910 5911 5911
5878 5878 5877 5876 5876 5876 5875 5875 5875 5874 5873 5873 5873 5873 5873 5872 5872 5872 5872 5872 5872 5872 5872 5872 5872 5872 5872 5873 5873 5873 5874 5873 5873 5872 5873 5874 5874 5876 5878 5880 5882 5883 5884 5885 5886 5887 5888 5890 5891 5893 5894 5896 5897 5898 5900 5900 5902 5905 5906 5909 5911 5911 5911 5910 5909 5909 5909 5909 5910 5910 5910 5912 5912 5910 5910 5911 5911 5911 5911 5910 5910 5910 5910 5910 5910 5911 5911 5912
5875 5874 5873 5873 5873 5873 5873 5872 5872 5871 5871 5870 5870 5870 5870 5870 5870 5869 5870 5870 5869 5869 5869 5869 5870 5870 5870 5871 5870 5871 5872 5872 5871 5871 5871 5872 5873 5874 5875 5877 5879 5881 5882 5883 5885 5885 5886 5887 5889 5890 5891 5893 5894 5895 5896 5898 5902 5906 5908 5908 5909 5911 5912 5910 5908 5908 5908 5909 5909 5909 5910 5911 5911 5909 5909 5910 5910 5911 5910 5911 5910 5910 5910 5910 5910 5910 5911 5912
5872 5871 5870 5869 5869 5869 5869 5869 5869 5869 5868 5867 5867 5867 5867 5867 5867 5867 5867 5867 5867 5867 5866 5867 5867 5867 5867 5868 5868 5869 5870 5869 5869 5869 5869 5870 5870 5871 5872 5873 5876 5878 5879 5881 5883 5883 5884 5885 5885 5886 5888 5889 5892 5894 5896 5899 5902 5906 5909 5910 5909 5911 5913 5913 5909 5906 5907 5908 5908 5908 5909 5910 5910 5909 5909 5909 5910 5910 5910 5910 5910 5910 5910 5910 5910 5910 5911 5911
5868 5868 5867 5865 5865 5865 5865 5865 5865 5865 5864 5864 5864 5864 5864 5864 5863 5864 5865 5864 5864 5864 5863 5864 5865 5864 5864 5865 5865 5866 5867 5867 5867 5867 5867 5868 5868 5869 5870 5871 5872 5874 5876 5878 5880 5881 5882 5882 5881 5884 5887 5889 5892 5894 5897 5899 5901 5905 5909 5911 5910 5911 5914 5915 5910 5905 5906 5907 5907 5907 5908 5909 5909 5909 5909 5909 5909 5910 5910 5910 5910 5910 5910 5910 5910 5910 5911 5911
5865 5864 5863 5862 5861 5861 5862 5861 5861 5861 5861 5860 5860 5860 5860 5860 5859 5860 5861 5861 5861 5861 5861 5861 5861 5861 5861 5861 5863 5864 5864 5864 5865 5865 5865 5865 5866 5866 5867 5868 5869 5871 5874 5876 5877 5878 5878 5878 5880 5883 5886 5890 5892 5894 5895 5897 5899 5902 5907 5909 5910 5911 5913 5915 5912 5905 5904 5906 5905 5906 5907 5907 5908 5908 5908 5909 5909 5909 5909 5909 5909 5909 5909 5909 5910 5910 5910 5911
5860 5860 5860 5859 5857 5857 5858 5858 5858 5857 5857 5856 5856 5856 5856 5856 5856 5856 5857 5858 5857 5857 5858 5858 5858 5859 5858 5858 5860 5861 5861 5861 5862 5862 5863 5863 5863 5864 5865 5866 5866 5868 5870 5871 5871 5873 5874 5876 5880 5883 5885 5888 5890 5891 5893 5895 5897 5899 5903 5907 5909 5910 5912 5914 5913 5906 5902 5904 5904 5904 5905 5906 5907 5908 5908 5908 5908 5909 5909 5909 5909 5909 5909 5909 5909 5909 5910 5910
5856 5856 5855 5854 5853 5853 5853 5854 5854 5854 5853 5853 5853 5852 5852 5852 5852 5852 5853 5855 5854 5853 5854 5855 5855 5856 5855 5854 5856 5857 5858 5858 5859 5859 5860 5861 5861 5861 5862 5863 5864 5865 5865 5866 5867 5870 5873 5877 5880 5882 5882 5885 5886 5889 5890 5892 5894 5896 5900 5904 5906 5909 5910 5912 5912 5904 5900 5902 5903 5903 5904 5905 5905 5906 5906 5907 5907 5908 5908 5908 5908 5908 5908 5908 5908 5909 5909 5909
5851 5851 5851 5850 5849 5848 5848 5849 5849 5849 5849 5849 5849 5849 5849 5848 5848 5849 5848 5850 5851 5849 5849 5850 5852 5853 5852 5852 5853 5854 5854 5855 5856 5856 5857 5858 5858 5858 5859 5860 5860 5860 5861 5863 5865 5867 5871 5875 5878 5878 5879 5881 5883 5885 5887 5889 5891 5892 5896 5900 5903 5907 5909 5911 5908 5901 5900 5901 5901 5902 5902 5901 5902 5903 5905 5906 5906 5907 5907 5907 5907 5907 5907 5907 5908 5908 5908 5908
5846 5846 5846 5846 5845 5843 5844 5844 5844 5845 5845 5844 5845 5844 5844 5844 5844 5844 5844 5845 5847 5847 5845 5845 5848 5850 5850 5849 5850 5850 5851 5852 5852 5853 5854 5855 5855 5855 5856 5857 5857 5858 5859 5861 5862 5864 5868 5871 5873 5874 5876 5878 5880 5882 5884 5886 5889 5890 5892 5897 5902 5905 5906 5910 5906 5899 5898 5898 5898 5899 5899 5899 5901 5901 5903 5904 5904 5905 5906 5906 5906 5906 5906 5906 5906 5907 5907 5907
5841 5841 5841 5841 5840 5839 5838 5839 5840 5840 5840 5840 5840 5840 5840 5840 5840 5840 5840 5840 5841 5843 5842 5841 5842 5845 5847 5846 5846 5847 5847 5848 5849 5849 5851 5852 5851 5852 5853 5853 5854 5855 5856 5857 5858 5859 5863 5866 5868 5870 5872 5874 5876 5878 5881 5883 5886 5888 5890 5893 5898 5902 5903 5906 5905 5898 5896 5896 5897 5897 5897 5899 5900 5899 5900 5902 5902 5903 5904 5904 5905 5905 5905 5905 5905 5905 5906 5907
5836 5836 5836 5836 5836 5835 5834 5833 5834 5834 5835 5835 5835 5835 5835 5835 5836 5836 5836 5835 5835 5837 5839 5839 5838 5840 5842 5842 5843 5843 5842 5844 5846 5845 5847 5848 5847 5848 5849 5849 5851 5852 5853 5853 5853 5855 5860 5862 5863 5866 5869 5870 5871 5874 5878 5881 5883 5885 5890 5893 5894 5897 5899 5902 5903 5898 5895 5895 5895 5894 5895 5897 5896 5897 5898 5899 5900 5901 5901 5902 5902 5903 5904 5904 5904 5903 5904 5905
5831 5830 5831 5830 5830 5830 5829 5828 5828 5829 5829 5830 5830 5830 5830 5830 5831 5831 5831 5830 5828 5831 5836 5836 5834 5835 5837 5838 5839 5838 5838 5842 5842 5841 5843 5844 5844 5845 5845 5847 5848 5849 5850 5850 5850 5853 5856 5858 5859 5863 5866 5866 5868 5872 5876 5879 5880 5882 5888 5892 5893 5894 5894 5897 5900 5898 5894 5892 5891 5891 5893 5892 5892 5894 5896 5896 5898 5898 5899 5900 5900 5901 5902 5902 5902 5901 5901 5903
5825 5824 5825 5824 5824 5825 5824 5823 5823 5822 5823 5825 5825 5824 5825 5825 5825 5825 5825 5825 5824 5826 5830 5832 5831 5831 5832 5833 5834 5834 5835 5837 5836 5837 5840 5840 5840 5842 5842 5843 5844 5845 5845 5846 5848 5849 5851 5853 5855 5858 5861 5863 5864 5869 5874 5875 5877 5881 5885 5888 5891 5893 5892 5893 5895 5896 5894 5888 5886 5888 5889 5888 5889 5892 5893 5893 5895 5896 5897 5898 5898 5898 5900 5900 5900 5898 5898 5901
5818 5818 5818 5818 5817 5818 5818 5818 5817 5817 5817 5818 5819 5819 5819 5820 5820 5820 5818 5818 5821 5822 5823 5826 5827 5826 5827 5828 5829 5829 5831 5831 5831 5833 5835 5835 5836 5838 5839 5840 5840 5841 5841 5842 5844 5845 5846 5848 5849 5852 5857 5860 5861 5865 5870 5870 5874 5879 5881 5883 5887 5890 5892 5891 5891 5893 5891 5884 5882 5885 5886 5885 5886 5889 5890 5891 5893 5895 5895 5895 5895 5896 5898 5899 5899 5897 5897 5898
5811 5810 5811 5811 5811 5811 5811 5811 5811 5811 5811 5811 5812 5813 5813 5814 5814 5814 5812 5813 5817 5817 5817 5821 5822 5821 5823 5824 5824 5825 5826 5826 5826 5829 5830 5830 5832 5833 5834 5836 5835 5837 5838 5838 5840 5841 5842 5842 5844 5848 5853 5856 5857 5861 5864 5866 5870 5874 5876 5879 5883 5887 5888 5887 5887 5887 5885 5881 5882 5884 5884 5884 5883 5885 5888 5890 5892 5893 5892 5893 5894 5894 5896 5897 5897 5896 5897 5897
5802 5802 5803 5803 5804 5804 5803 5804 5804 5804 5804 5805 5805 5805 5807 5807 5806 5807 5808 5809 5812 5811 5810 5814 5816 5817 5819 5819 5819 5819 5820 5821 5821 5823 5825 5825 5827 5828 5830 5831 5832 5833 5834 5835 5837 5837 5838 5839 5841 5844 5848 5850 5852 5855 5859 5861 5864 5867 5870 5874 5878 5881 5881 5880 5881 5881 5878 5879 5883 5884 5884 5882 5880 5883 5886 5887 5888 5889 5889 5891 5892 5893 5894 5895 5894 5894 5895 5895
5794 5794 5794 5794 5796 5796 5795 5796 5796 5796 5797 5798 5797 5798 5799 5798 5799 5802 5804 5804 5806 5806 5805 5807 5809 5812 5813 5813 5813 5814 5815 5816 5815 5817 5819 5820 5821 5823 5825 5827 5827 5829 5830 5831 5832 5833 5833 5835 5837 5839 5842 5845 5847 5850 5852 5854 5858 5861 5864 5869 5873 5875 5875 5875 5876 5877 5876 5878 5882 5883 5882 5879 5877 5880 5883 5884 5885 5887 5887 5888 5889 5891 5893 5892 5891 5891 5892 5894
5785 5785 5785 5785 5786 5787 5787 5787 5788 5787 5788 5789 5789 5790 5790 5790 5794 5797 5798 5799 5800 5800 5800 5801 5802 5805 5807 5807 5808 5808 5809 5811 5811 5812 5814 5815 5816 5817 5819 5822 5823 5825 5827 5827 5827 5828 5829 5829 5832 5835 5837 5840 5842 5846 5849 5852 5855 5856 5860 5866 5868 5868 5869 5872 5874 5875 5875 5877 5880 5880 5877 5874 5875 5878 5881 5882 5883 5884 5884 5885 5887 5889 5890 5890 5888 5887 5889 5891
5776 5776 5776 5776 5776 5777 5777 5777 5778 5778 5779 5780 5780 5780 5780 5784 5789 5791 5791 5792 5793 5793 5794 5795 5795 5798 5800 5801 5803 5803 5803 5807 5807 5806 5808 5809 5810 5812 5814 5817 5819 5820 5822 5822 5823 5824 5825 5826 5829 5831 5832 5835 5839 5842 5846 5850 5851 5851 5856 5860 5860 5861 5865 5870 5872 5873 5875 5876 5875 5875 5873 5871 5874 5877 5878 5879 5880 5880 5880 5882 5884 5885 5888 5889 5886 5885 5887 5889
5766 5766 5766 5766 5766 5767 5767 5767 5768 5767 5768 5769 5769 5770 5774 5779 5782 5783 5783 5784 5785 5786 5787 5786 5788 5791 5793 5794 5796 5797 5798 5802 5801 5800 5802 5805 5805 5807 5809 5811 5813 5815 5816 5818 5819 5820 5821 5823 5824 5825 5827 5830 5834 5837 5840 5844 5845 5847 5849 5852 5855 5860 5864 5867 5869 5871 5873 5871 5870 5872 5872 5872 5874 5874 5873 5874 5875 5876 5877 5879 5882 5884 5887 5887 5884 5884 5887 5888
5754 5754 5754 5755 5756 5757 5756 5756 5756 5756 5757 5757 5757 5762 5768 5771 5772 5773 5775 5775 5777 5779 5779 5778 5780 5784 5786 5787 5789 5790 5792 5795 5795 5794 5797 5800 5800 5801 5804 5805 5807 5810 5812 5815 5816 5816 5818 5819 5820 5820 5823 5825 5827 5830 5833 5836 5841 5843 5844 5849 5856 5858 5859 5862 5864 5867 5867 5865 5866 5869 5870 5871 5873 5871 5870 5871 5872 5873 5875 5877 5879 5883 5886 5885 5882 5882 5885 5886
5741 5742 5741 5742 5745 5744 5745 5745 5744 5744 5744 5743 5747 5755 5759 5759 5761 5764 5766 5766 5768 5770 5770 5771 5773 5776 5778 5780 5782 5784 5784 5786 5789 5789 5791 5793 5794 5796 5798 5799 5801 5804 5807 5810 5812 5812 5813 5815 5816 5816 5818 5820 5820 5823 5827 5829 5833 5838 5842 5847 5851 5849 5850 5854 5857 5860 5861 5861 5863 5865 5866 5868 5870 5869 5867 5868 5870 5870 5873 5876 5877 5880 5883 5882 5880 5881 5883 5882
5728 5729 5726 5729 5733 5730 5731 5733 5732 5731 5731 5731 5738 5745 5746 5748 5751 5754 5756 5756 5758 5760 5761 5763 5765 5767 5769 5772 5776 5778 5777 5777 5781 5784 5785 5786 5789 5790 5792 5794 5795 5798 5802 5805 5806 5807 5807 5809 5813 5813 5812 5814 5814 5816 5821 5825 5827 5833 5838 5841 5842 5842 5845 5850 5852 5854 5856 5857 5860 5862 5863 5863 5865 5868 5867 5866 5868 5868 5869 5873 5875 5877 5881 5883 5882 5879 5879 5880
5715 5715 5711 5715 5719 5715 5716 5719 5718 5718 5718 5721 5728 5732 5734 5737 5739 5741 5744 5745 5747 5749 5752 5755 5756 5758 5761 5764 5768 5770 5770 5771 5774 5776 5777 5780 5784 5785 5785 5788 5790 5792 5795 5799 5801 5803 5803 5803 5807 5811 5808 5807 5810 5813 5818 5822 5823 5825 5828 5831 5835 5837 5842 5847 5848 5848 5850 5853 5856 5857 5858 5858 5861 5866 5866 5864 5866 5867 5867 5870 5873 5874 5878 5883 5883 5879 5877 5878
5700 5701 5697 5700 5705 5702 5702 5703 5704 5705 5705 5709 5716 5718 5721 5724 5725 5728 5732 5734 5736 5737 5740 5743 5745 5749 5752 5755 5758 5761 5763 5765 5767 5767 5769 5774 5777 5777 5778 5782 5785 5787 5788 5792 5794 5796 5798 5797 5801 5806 5804 5802 5806 5811 5814 5817 5818 5820 5821 5825 5830 5834 5837 5840 5840 5843 5847 5848 5850 5853 5854 5856 5858 5862 5863 5862 5863 5865 5866 5868 5872 5873 5876 5880 5882 5879 5876 5875
5685 5686 5683 5684 5689 5689 5686 5687 5690 5691 5691 5696 5703 5705 5706 5709 5712 5716 5720 5722 5723 5725 5728 5731 5735 5739 5742 5745 5748 5750 5755 5759 5758 5759 5763 5768 5770 5771 5773 5775 5779 5781 5782 5785 5788 5791 5794 5794 5795 5799 5800 5800 5802 5805 5807 5809 5812 5815 5817 5821 5826 5829 5832 5833 5834 5840 5844 5843 5847 5850 5849 5852 5856 5859 5860 5859 5858 5861 5864 5867 5870 5872 5873 5875 5878 5880 5877 5873
5668 5671 5670 5668 5672 5674 5671 5672 5677 5677 5677 5684 5689 5690 5693 5696 5699 5703 5706 5708 5710 5712 5716 5720 5725 5729 5731 5736 5738 5740 5746 5749 5749 5751 5756 5762 5764 5764 5765 5767 5772 5776 5777 5779 5783 5785 5787 5789 5790 5792 5796 5799 5800 5800 5801 5803 5806 5808 5811 5815 5818 5821 5826 5829 5831 5836 5838 5838 5843 5844 5841 5846 5852 5855 5857 5855 5853 5856 5861 5864 5865 5867 5869 5870 5873 5877 5875 5871
5652 5655 5657 5654 5655 5658 5656 5659 5664 5663 5664 5670 5673 5675 5679 5682 5685 5689 5692 5695 5698 5700 5704 5709 5715 5718 5721 5727 5729 5732 5737 5740 5741 5745 5749 5754 5758 5758 5758 5759 5764 5769 5773 5775 5777 5778 5780 5783 5785 5787 5789 5793 5795 5794 5795 5797 5799 5802 5806 5808 5809 5815 5822 5824 5826 5832 5831 5831 5837 5837 5836 5842 5847 5850 5853 5853 5851 5852 5856 5860 5862 5863 5865 5866 5870 5873 5869 5868
5638 5640 5643 5641 5639 5642 5642 5644 5648 5648 5650 5654 5657 5660 5664 5666 5671 5676 5679 5683 5686 5689 5693 5699 5704 5708 5711 5717 5720 5723 5728 5731 5735 5738 5741 5745 5749 5751 5751 5751 5756 5764 5767 5769 5772 5773 5774 5776 5778 5781 5782 5784 5787 5789 5791 5793 5795 5797 5801 5803 5804 5810 5816 5816 5819 5823 5821 5823 5828 5829 5832 5841 5845 5846 5848 5851 5851 5849 5850 5853 5857 5860 5861 5862 5867 5868 5865 5865
5623 5625 5628 5627 5624 5626 5630 5632 5634 5634 5635 5637 5641 5645 5650 5653 5658 5662 5664 5669 5673 5676 5680 5687 5692 5696 5700 5705 5709 5713 5718 5723 5727 5729 5732 5737 5740 5742 5743 5744 5751 5757 5759 5762 5766 5766 5767 5769 5771 5774 5777 5780 5784 5788 5789 5790 5792 5794 5796 5798 5801 5805 5809 5811 5812 5813 5815 5819 5820 5820 5827 5836 5840 5841 5844 5847 5847 5845 5845 5848 5852 5855 5858 5862 5864 5862 5861 5864
5607 5610 5614 5613 5610 5612 5618 5620 5619 5618 5618 5621 5625 5630 5635 5639 5643 5647 5651 5656 5661 5664 5668 5674 5680 5684 5690 5695 5699 5704 5709 5713 5718 5720 5724 5729 5732 5734 5736 5740 5746 5750 5751 5756 5759 5759 5761 5764 5766 5769 5773 5777 5781 5784 5786 5786 5789 5792 5793 5793 5796 5800 5804 5806 5805 5807 5812 5815 5813 5816 5822 5826 5830 5836 5840 5843 5844 5842 5842 5846 5849 5851 5855 5858 5858 5855 5857 5861
5593 5596 5599 5599 5598 5599 5603 5605 5605 5606 5609 5611 5614 5618 5622 5625 5629 5634 5639 5645 5650 5654 5658 5663 5669 5675 5680 5685 5689 5695 5701 5704 5708 5712 5716 5721 5725 5727 5731 5735 5738 5741 5744 5749 5752 5754 5757 5760 5763 5766 5768 5772 5776 5778 5780 5782 5785 5790 5791 5789 5791 5794 5797 5800 5801 5803 5807 5808 5809 5814 5818 5817 5821 5829 5834 5838 5841 5840 5840 5842 5845 5848 5850 5852 5852 5852 5854 5856
5582 5583 5585 5585 5586 5588 5590 5592 5595 5598 5602 5603 5605 5609 5614 5616 5620 5624 5629 5632 5636 5641 5646 5652 5659 5665 5670 5675 5680 5685 5691 5695 5700 5705 5709 5713 5717 5720 5726 5730 5732 5734 5738 5742 5746 5749 5751 5754 5758 5762 5763 5765 5769 5772 5775 5777 5780 5783 5786 5786 5787 5789 5790 5793 5795 5799 5802 5803 5806 5811 5812 5811 5815 5821 5826 5831 5836 5839 5839 5839 5839 5842 5845 5847 5848 5850 5851 5852
5573 5573 5574 5575 5576 5579 5582 5583 5586 5589 5592 5594 5597 5601 5605 5607 5610 5613 5618 5622 5626 5630 5633 5635 5641 5649 5655 5662 5669 5675 5682 5688 5692 5697 5702 5705 5708 5713 5720 5725 5727 5728 5731 5736 5741 5743 5744 5748 5753 5756 5758 5759 5762 5767 5769 5770 5773 5776 5779 5782 5784 5786 5787 5787 5789 5793 5796 5798 5800 5804 5804 5805 5810 5815 5818 5822 5828 5834 5836 5835 5835 5838 5840 5843 5844 5846 5848 5849
5566 5565 5566 5567 5568 5571 5573 5576 5579 5581 5584 5587 5590 5593 5596 5598 5599 5602 5606 5613 5620 5625 5625 5623 5627 5634 5641 5650 5659 5667 5675 5678 5681 5686 5691 5696 5700 5706 5713 5718 5721 5723 5725 5729 5734 5736 5738 5743 5747 5750 5752 5753 5757 5761 5763 5765 5768 5769 5771 5775 5779 5781 5783 5784 5785 5786 5789 5791 5794 5796 5797 5799 5805 5809 5810 5812 5817 5824 5829 5830 5831 5833 5835 5838 5839 5840 5842 5844
5560 5559 5560 5561 5562 5564 5566 5569 5572 5573 5576 5581 5583 5585 5587 5589 5591 5594 5598 5605 5610 5613 5615 5619 5624 5628 5633 5640 5645 5649 5654 5658 5663 5669 5674 5679 5687 5694 5700 5707 5711 5716 5721 5724 5727 5731 5733 5737 5742 5744 5746 5749 5753 5755 5759 5761 5760 5759 5762 5767 5771 5775 5778 5781 5782 5781 5782 5785 5787 5787 5790 5795 5799 5802 5804 5805 5807 5814 5822 5826 5826 5828 5831 5833 5834 5836 5839 5840